Regional Weather Roundup
Issued by NWS

Home | Current Version | Previous Version | Text Only | Print | Product List | Glossary Off
Versions: 1 2 3 4 5 6 7 8 9 10 11 12 13 14 15 16 17 18 19 20 21 22 23 24 25 26 27 28 29 30 31 32 33 34 35 36 37 38 39 40 41 42 43 44 45 46 47 48 49 50

000
ASUS43 KOAX 280402
RWRNE

WEATHER ROUNDUP FOR NEBRASKA
NATIONAL WEATHER SERVICE OMAHA NE
1100 PM CDT WED APR 27 2016

NOTES: SATELLITE DATA IS BEING USED TO AUGMENT CLOUD COVER ABOVE
       12000 FEET.
       "FAIR" INDICATES FEW OR NO CLOUDS BELOW 12,000 FEET WITH NO
       SIGNIFICANT WEATHER AND/OR OBSTRUCTIONS TO VISIBILITY.

  * THESE STATIONS DO NOT REPORT WEATHER SUCH AS RAIN...SNOW OR FOG.

NEZ001>004-019>022-054>056-280500-
NEBRASKA PANHANDLE

CITY           SKY/WX    TMP DP  RH WIND       PRES   REMARKS
SCOTTSBLUFF    CLOUDY    36  30  79 N14       29.90R WCI  27
ALLIANCE       CLOUDY    31  29  92 N12       29.88R WCI  22
CHADRON        CLOUDY    33  31  92 N14       29.92R WCI  23
KIMBALL        CLEAR     35  29  79 NW16G26   29.89R WCI  25
SIDNEY         CLOUDY    37  32  82 N12G22    29.88R WCI  29
$$

NEZ057>060-069>072-079>082-280500-
SOUTHWEST NEBRASKA

CITY           SKY/WX    TMP DP  RH WIND       PRES   REMARKS
NORTH PLATTE   CLOUDY    34  30  85 NW10      29.83R WCI  26
IMPERIAL       CLEAR     38  33  82 NW9       29.87R WCI  31
LEXINGTON      CLOUDY    38  33  82 NW16      29.80R WCI  28
MCCOOK         CLEAR     39  33  79 NW13      29.84R WCI  31
$$

NEZ005>010-023>029-035>040-094-280500-
NORTH CENTRAL NEBRASKA

CITY           SKY/WX    TMP DP  RH WIND       PRES   REMARKS
VALENTINE      CLOUDY    34  32  92 NW15      29.82R FOG     WCI  24
BROKEN BOW     CLOUDY    37  34  89 NW16      29.78R WCI  28
ORD            CLOUDY    40  37  89 NW21      29.73R WCI  30
$$

NEZ041-046>049-061>064-073>077-083>087-280500-
SOUTH CENTRAL NEBRASKA

CITY           SKY/WX    TMP DP  RH WIND       PRES   REMARKS
GRAND ISLAND   CLOUDY    41  38  89 NW24G32   29.71R
AURORA         CLOUDY    42  40  93 NW24      29.68R
HASTINGS       CLOUDY    41  36  82 NW24      29.72R
KEARNEY *      CLOUDY    39  34  81 NW20      29.75S WCI  30
YORK           CLOUDY    45  41  87 NW28G36   29.64R
$$

NEZ011>018-030>034-042>045-280500-
NORTHEAST NEBRASKA

CITY           SKY/WX    TMP DP  RH WIND       PRES   REMARKS
NORFOLK        CLOUDY    46  44  93 NE13      29.65R
ALBION         LGT RAIN  45  44  95 NW15G21   29.67R
BLAIR          RAIN      47  46  95 SW7       29.59R
COLUMBUS *     CLOUDY    48  41  76 N14G20    29.63R
FREMONT        RAIN      47  47  98 CALM      29.60R
TEKAMAH        LGT RAIN  47  46  97 N16       29.59R
$$

NEZ050>053-065>068-078-088>093-280500-
SOUTHEAST NEBRASKA

CITY           SKY/WX    TMP DP  RH WIND       PRES   REMARKS
LINCOLN        CLOUDY    47  43  86 W5        29.60R
OMAHA EPPLEY   CLOUDY    49  43  80 S7        29.60R
FALLS CITY     CLOUDY    49  40  71 SW20G28   29.63S
$$

NEZ044-045-051>053-067-280500-
OMAHA AREA

CITY           SKY/WX    TMP DP  RH WIND       PRES   REMARKS
OMAHA EPPLEY   CLOUDY    49  43  80 S7        29.60R
BLAIR          RAIN      47  46  95 SW7       29.59R
FREMONT        RAIN      47  47  98 CALM      29.60R
OFFUTT AFB     CLOUDY    47  43  87 S5        29.60R
$$




USA.gov is the U.S. government's official web portal to all federal, state and local government web resources and services.